[[{"header":{"parameterUnit":"m.s-1","parameterCategory":1,"la1":30.2991,"la2":30.254,"lo1":-89.0895,"lo2":-89.0444,"dx":0.0017,"dy":0.0017,"nx":28,"ny":28,"refTime":"2023-01-23T03:00:00:Z","depth":0,"parameterNumber":2,"parameterNumberName":"U-component_of_WINDS"},"data":[0,0,0,0,0,0,0,0,0,0,0,0,0,0,0,0,0,0,0,0,0,0,0,0,0,0,0,0,0,0,0,0,0,0,0,0,0,0,0,0,0,0,0,0,0,0,0,0,0,0,0,0,0,0,0,0,0,0,2.255,2.2552,0,2.2779,2.2782,2.2785,2.2815,2.2813,2.2811,2.2809,2.305,2.3058,2.3066,0,0,0,0,0,0,0,0,0,0,0,0,0,2.2143,2.2151,2.2549,2.2552,2.2555,2.2779,2.2782,2.2785,2.2816,2.2813,2.281,2.2808,2.3047,2.3057,2.3067,0,0,0,0,0,0,0,0,0,0,0,0,0,2.2341,2.2153,2.2549,2.2597,2.2604,2.2778,2.2782,2.2786,2.2816,2.2813,2.281,2.2806,2.3043,2.3056,2.3068,2.3212,0,0,2.3107,2.3113,0,0,0,0,0,0,0,0,2.233,2.2356,2.2587,2.2594,2.2602,2.2765,2.2727,2.2929,2.2817,2.2736,2.2809,2.2805,2.2958,2.2977,2.3028,2.3224,2.3234,2.3108,2.3116,2.3121,2.3125,0,0,0,0,0,0,0,2.2316,2.2346,2.2641,2.2591,2.26,2.2609,2.2634,2.2766,2.2863,2.2742,2.2745,2.2772,2.2961,2.3016,2.3034,2.3238,2.3108,2.3119,2.3127,2.3132,2.3567,2.3571,0,0,0,0,0,0,2.2293,2.2335,2.2633,2.2647,2.2455,2.2619,2.2647,2.2716,2.2861,2.288,2.2774,2.2772,2.2996,2.3019,2.3042,2.3223,2.3121,2.3133,2.314,2.3563,2.3568,2.3572,0,0,0,0,0,0,2.2284,2.2319,2.2624,2.2492,2.2531,2.263,2.2708,2.2722,2.2777,2.2885,2.2903,2.2811,2.2994,2.3025,2.317,2.3232,2.3139,2.315,2.3558,2.3565,2.357,2.3583,0,0,0,0,0,0,2.2272,2.2316,2.237,2.2493,2.2538,2.2746,2.2711,2.2729,2.2798,2.2797,2.2925,2.2943,2.2994,2.3151,2.3183,2.3247,2.316,2.3553,2.3561,2.3568,2.3578,2.3589,2.3598,0,0,0,0,0,2.2257,2.2365,2.2372,2.2408,2.2608,2.2749,2.2775,2.283,2.2802,2.2859,2.2929,2.2939,2.3219,2.3166,2.3202,2.3271,2.355,2.3559,2.3568,2.3573,2.3587,2.3598,0,0,0,0,0,0,2.2247,2.2382,2.2391,2.2541,2.2633,2.2754,2.2826,2.2842,2.2945,2.2941,2.3006,2.3035,2.3178,2.3239,2.3177,2.342,2.3383,2.3399,2.3374,2.3388,2.3398,2.3381,2.3171,0,0,0,0,0,2.2262,2.2364,2.2477,2.2598,2.2644,2.2727,2.2791,2.2825,2.2924,2.2964,2.3044,2.3142,2.3252,2.3324,2.3431,2.3587,2.3617,2.3653,2.3663,2.3671,2.3684,2.3775,2.3793,2.3601,2.3601,2.3601,0,0,2.2295,2.2381,2.2441,2.2599,2.2674,2.278,2.276,2.2873,2.2953,2.2981,2.3124,2.3187,2.33,2.3452,2.3523,2.3508,2.3744,2.3682,2.3687,2.3697,2.3786,2.3804,2.382,2.3607,2.3606,2.3605,0,0,2.2408,2.2482,2.2593,2.2669,2.2783,2.2838,2.2865,2.2984,2.3026,2.317,2.3194,2.3292,2.348,2.3561,2.3626,2.3773,2.3787,2.3806,2.3861,2.3948,2.3963,2.3976,2.4031,2.405,2.382,2.382,2.382,0,2.2434,2.2594,2.2648,2.2761,2.283,2.286,2.2974,2.3046,2.319,2.3239,2.3219,2.3457,2.3535,2.3708,2.3744,2.3795,2.383,2.3792,2.3956,2.397,2.3984,2.4037,2.4057,2.3821,2.3821,2.3821,2.3821,0,2.2622,2.2732,2.2808,2.2945,2.3023,2.3136,2.321,2.3283,2.3311,2.3369,2.3518,2.3613,2.3741,2.3784,2.3813,2.3963,2.395,2.3942,2.3906,2.4003,2.4054,2.4074,2.3824,2.3823,2.3823,2.3822,0,0,2.2734,2.2901,2.2928,2.2992,2.3121,2.3209,2.3324,2.3448,2.3511,2.361,2.3711,2.387,2.3865,2.3939,2.3978,2.4054,2.4167,2.4038,2.4041,2.406,2.4341,2.4347,2.4369,2.4177,2.4181,2.4184,2.4332,0,2.2864,2.3068,2.3122,2.3297,2.3401,2.3432,2.3533,2.3624,2.3682,2.3781,2.3846,2.3959,2.3942,2.3988,2.4064,2.4137,2.4225,2.4127,2.4274,2.4279,2.4245,2.4395,2.4401,2.4536,2.4352,2.4356,2.4358,0,2.3042,2.3144,2.3329,2.3447,2.3493,2.3582,2.3702,2.3795,2.3901,2.3938,2.4022,2.4054,2.4179,2.4136,2.431,2.4243,2.4306,2.4352,2.4358,2.4375,2.4325,2.4418,2.458,2.4601,2.439,2.4387,2.4385,0,2.3108,2.3292,2.3427,2.348,2.362,2.3683,2.3745,2.3847,2.392,2.4025,2.4073,2.4192,2.4258,2.4351,2.4415,2.4378,2.4586,2.4547,2.4623,2.4621,2.4666,2.4662,2.4842,2.4704,2.4704,2.4704,2.4703,0,2.3248,2.3361,2.3459,2.3542,2.3669,2.3731,2.3857,2.392,2.4012,2.411,2.4144,2.4236,2.4315,2.4419,2.447,2.4609,2.4638,2.4674,2.4686,2.4671,2.4667,2.4715,2.4708,2.4709,2.4708,2.4707,2.4706,0,2.3344,2.3413,2.3563,2.3683,2.3717,2.3806,2.3911,2.3994,2.4053,2.4177,2.421,2.4305,2.4429,2.4502,2.4659,2.4694,2.4848,2.4856,2.4811,2.4818,2.4889,2.4882,2.5107,2.5141,2.4979,2.498,2.4982,0,2.3429,2.3516,2.3646,2.3713,2.3776,2.3884,2.3957,2.4023,2.4099,2.4227,2.4296,2.4422,2.4526,2.4723,2.4808,2.4929,2.4941,2.5012,2.496,2.4943,2.4945,2.4939,2.495,2.5021,2.5022,2.5023,2.5024,0,2.3574,2.3604,2.3708,2.3825,2.3912,2.4007,2.4102,2.4156,2.4238,2.4322,2.4448,2.4529,2.4689,2.4815,2.4944,2.5011,2.5033,2.504,2.5064,2.505,2.5022,2.504,2.4837,2.5035,2.5034,2.5033,2.5032,2.5032,2.3669,2.3748,2.3852,2.3968,2.4046,2.4135,2.422,2.429,2.4395,2.453,2.4562,2.4696,2.4803,2.4978,2.5048,2.5156,2.5145,2.5179,2.5188,2.5196,2.5199,2.5003,2.5179,2.5179,2.5179,2.5179,2.5179,0,2.3817,2.3885,2.3991,2.4123,2.4214,2.4224,2.4331,2.4408,2.4524,2.4621,2.4723,2.487,2.4992,2.5087,2.5213,2.5282,2.5295,2.5313,2.5309,2.5325,2.5201,2.5168,2.53,2.53,2.53,2.53,2.53,2.53,2.3905,2.4041,2.4084,2.426,2.4329,2.4459,2.4519,2.4602,2.468,2.4842,2.4943,2.5003,2.5101,2.5235,2.5349,2.5374,2.5421,2.5437,2.5464,2.5346,2.5333,2.5321,2.529,2.5446,2.5446,2.558,2.5581,2.5582]},{"header":{"parameterUnit":"m.s-1","parameterCategory":1,"la1":30.2991,"la2":30.254,"lo1":-89.0895,"lo2":-89.0444,"dx":0.0017,"dy":0.0017,"nx":28,"ny":28,"refTime":"2023-01-23T03:00:00:Z","depth":0,"parameterNumber":3,"parameterNumberName":"V-component_of_WINDS"},"data":[0,0,0,0,0,0,0,0,0,0,0,0,0,0,0,0,0,0,0,0,0,0,0,0,0,0,0,0,0,0,0,0,0,0,0,0,0,0,0,0,0,0,0,0,0,0,0,0,0,0,0,0,0,0,0,0,0,0,-1.4152,-1.4155,0,-1.4401,-1.4404,-1.4407,-1.4472,-1.447,-1.4469,-1.4467,-1.4725,-1.4733,-1.4741,0,0,0,0,0,0,0,0,0,0,0,0,0,-1.3736,-1.3743,-1.4152,-1.4155,-1.4158,-1.4401,-1.4404,-1.4407,-1.4472,-1.447,-1.4468,-1.4466,-1.4722,-1.4732,-1.4742,0,0,0,0,0,0,0,0,0,0,0,0,0,-1.3944,-1.3745,-1.4151,-1.422,-1.4228,-1.44,-1.4404,-1.4408,-1.4472,-1.447,-1.4468,-1.4465,-1.4719,-1.4731,-1.4743,-1.4866,0,0,-1.4781,-1.4787,0,0,0,0,0,0,0,0,-1.3932,-1.3959,-1.4206,-1.4215,-1.4225,-1.4403,-1.4352,-1.4562,-1.4473,-1.438,-1.4467,-1.4464,-1.462,-1.464,-1.4692,-1.4878,-1.4889,-1.4783,-1.479,-1.4795,-1.4799,0,0,0,0,0,0,0,-1.3917,-1.3949,-1.4251,-1.421,-1.4221,-1.4239,-1.4266,-1.4392,-1.451,-1.4388,-1.4393,-1.4421,-1.4625,-1.468,-1.4699,-1.4893,-1.4782,-1.4793,-1.4801,-1.4806,-1.5194,-1.5197,0,0,0,0,0,0,-1.3891,-1.3936,-1.4243,-1.4258,-1.407,-1.4248,-1.4278,-1.4348,-1.4509,-1.4531,-1.4423,-1.4423,-1.466,-1.4684,-1.4708,-1.4863,-1.4795,-1.4807,-1.4814,-1.5191,-1.5195,-1.5198,0,0,0,0,0,0,-1.3882,-1.3918,-1.4233,-1.4099,-1.414,-1.4258,-1.4336,-1.4354,-1.441,-1.4535,-1.4557,-1.4458,-1.4659,-1.4691,-1.4827,-1.4873,-1.4813,-1.4824,-1.5188,-1.5192,-1.5196,-1.5174,0,0,0,0,0,0,-1.3869,-1.3914,-1.3961,-1.4099,-1.4147,-1.4346,-1.4339,-1.4361,-1.4431,-1.4434,-1.4574,-1.4595,-1.466,-1.4808,-1.4839,-1.4889,-1.4834,-1.5184,-1.519,-1.5195,-1.5171,-1.5177,-1.5182,0,0,0,0,0,-1.3854,-1.3945,-1.3963,-1.4,-1.4208,-1.4348,-1.4376,-1.4448,-1.4434,-1.4483,-1.4564,-1.459,-1.4863,-1.4821,-1.4857,-1.4911,-1.5182,-1.5188,-1.5195,-1.5169,-1.5176,-1.5182,0,0,0,0,0,0,-1.381,-1.3964,-1.3986,-1.4124,-1.4222,-1.4359,-1.4423,-1.4453,-1.4558,-1.4557,-1.4643,-1.4674,-1.4804,-1.4872,-1.4822,-1.504,-1.5023,-1.5036,-1.4991,-1.4999,-1.5004,-1.4985,-1.4844,0,0,0,0,0,-1.3816,-1.3916,-1.4046,-1.4155,-1.4204,-1.4304,-1.4368,-1.4415,-1.4521,-1.4563,-1.4654,-1.4757,-1.4866,-1.4936,-1.5043,-1.5181,-1.5213,-1.5236,-1.5242,-1.5246,-1.5257,-1.5336,-1.5348,-1.5219,-1.5219,-1.5219,0,0,-1.383,-1.3927,-1.3985,-1.4149,-1.4231,-1.4333,-1.4339,-1.4447,-1.4525,-1.458,-1.4714,-1.4784,-1.4905,-1.5042,-1.5108,-1.5103,-1.53,-1.5254,-1.5256,-1.5266,-1.5344,-1.5356,-1.5367,-1.5223,-1.5222,-1.5222,0,0,-1.3908,-1.3991,-1.4091,-1.4173,-1.4297,-1.4363,-1.4387,-1.452,-1.4568,-1.4704,-1.4748,-1.4842,-1.5027,-1.5112,-1.5179,-1.5289,-1.5318,-1.5322,-1.535,-1.5427,-1.5437,-1.5446,-1.5487,-1.55,-1.5332,-1.5332,-1.5332,0,-1.391,-1.4066,-1.414,-1.4246,-1.4317,-1.4371,-1.4474,-1.4551,-1.4703,-1.4752,-1.4744,-1.4978,-1.5063,-1.5222,-1.5248,-1.5301,-1.5332,-1.5306,-1.5429,-1.5439,-1.5449,-1.5489,-1.5504,-1.5332,-1.5332,-1.5332,-1.5332,0,-1.4063,-1.417,-1.4237,-1.4382,-1.4461,-1.4565,-1.4655,-1.4727,-1.4767,-1.4834,-1.4972,-1.5076,-1.5205,-1.5247,-1.5287,-1.5412,-1.5405,-1.5412,-1.5397,-1.546,-1.5499,-1.5515,-1.5331,-1.5332,-1.5332,-1.5332,0,0,-1.412,-1.4305,-1.4328,-1.4395,-1.4535,-1.462,-1.4727,-1.4853,-1.4913,-1.5016,-1.5109,-1.5265,-1.5273,-1.5349,-1.54,-1.5466,-1.5548,-1.5466,-1.547,-1.5478,-1.5694,-1.5688,-1.5704,-1.5568,-1.5571,-1.5574,-1.5684,0,-1.4216,-1.4409,-1.4478,-1.4637,-1.4738,-1.479,-1.4884,-1.4981,-1.5047,-1.5143,-1.5217,-1.5327,-1.5328,-1.5374,-1.5442,-1.5524,-1.5593,-1.5517,-1.5657,-1.5661,-1.5626,-1.5724,-1.5719,-1.5817,-1.5699,-1.5702,-1.5704,0,-1.4354,-1.4459,-1.4627,-1.4755,-1.48,-1.4883,-1.5004,-1.5095,-1.5207,-1.525,-1.5335,-1.5381,-1.5497,-1.5474,-1.5635,-1.5582,-1.5644,-1.5692,-1.5698,-1.5715,-1.5687,-1.5744,-1.5851,-1.5866,-1.5728,-1.5726,-1.5724,0,-1.438,-1.4563,-1.4688,-1.4743,-1.4896,-1.4953,-1.502,-1.5129,-1.52,-1.5306,-1.5354,-1.5472,-1.5538,-1.5629,-1.5707,-1.5683,-1.5862,-1.5845,-1.5902,-1.5901,-1.5938,-1.5935,-1.6057,-1.5976,-1.5976,-1.5976,-1.5975,0,-1.4481,-1.4582,-1.4701,-1.4778,-1.4893,-1.4973,-1.5085,-1.5155,-1.5252,-1.5344,-1.5397,-1.5483,-1.558,-1.5679,-1.574,-1.5865,-1.5894,-1.5934,-1.5949,-1.593,-1.5925,-1.5972,-1.5967,-1.598,-1.5979,-1.5978,-1.5977,0,-1.453,-1.4613,-1.4753,-1.4886,-1.4922,-1.5001,-1.5116,-1.5193,-1.5261,-1.5378,-1.5409,-1.5518,-1.5637,-1.5723,-1.5877,-1.5918,-1.6052,-1.6067,-1.6014,-1.6022,-1.6075,-1.6069,-1.6232,-1.6258,-1.6159,-1.616,-1.616,0,-1.4589,-1.4668,-1.4809,-1.4874,-1.494,-1.5044,-1.5117,-1.5199,-1.5273,-1.5407,-1.5468,-1.559,-1.5693,-1.5881,-1.5974,-1.6092,-1.6111,-1.616,-1.6129,-1.6107,-1.6113,-1.6108,-1.6117,-1.6164,-1.6165,-1.6166,-1.6166,0,-1.4685,-1.4723,-1.4825,-1.4943,-1.5028,-1.5125,-1.5222,-1.5273,-1.5372,-1.5453,-1.5574,-1.5654,-1.5811,-1.5932,-1.6059,-1.613,-1.6166,-1.6175,-1.6195,-1.6176,-1.6143,-1.6163,-1.6028,-1.6171,-1.617,-1.617,-1.617,-1.617,-1.4742,-1.4815,-1.4926,-1.5039,-1.512,-1.521,-1.529,-1.5368,-1.547,-1.5603,-1.5646,-1.5772,-1.5883,-1.6058,-1.613,-1.6231,-1.6229,-1.6258,-1.6265,-1.6271,-1.6271,-1.6125,-1.6254,-1.6254,-1.6254,-1.6254,-1.6254,0,-1.4842,-1.4916,-1.5019,-1.5153,-1.5242,-1.5266,-1.5375,-1.5449,-1.5559,-1.5659,-1.5758,-1.5899,-1.6017,-1.6119,-1.6242,-1.6304,-1.6323,-1.6333,-1.633,-1.6346,-1.6264,-1.6235,-1.6315,-1.6315,-1.6315,-1.6315,-1.6315,-1.6315,-1.4904,-1.5029,-1.508,-1.5247,-1.5321,-1.5444,-1.5504,-1.5588,-1.5668,-1.5822,-1.5921,-1.5986,-1.6088,-1.6218,-1.6329,-1.6356,-1.6399,-1.6406,-1.6437,-1.6359,-1.6352,-1.6345,-1.6318,-1.6414,-1.6414,-1.6511,-1.6511,-1.6512]}]]